Regional Weather Roundup
Issued by NWS State College, PA

Home | Current Version | Previous Version | Text Only | Print | Product List | Glossary Off
Versions: 1 2 3 4 5 6 7 8 9 10 11 12 13 14 15 16 17 18 19 20 21 22 23 24 25 26 27 28 29 30 31 32 33 34 35 36 37 38 39 40 41 42 43 44 45 46 47 48 49 50

000
ASUS41 KCTP 162210
RWRCTP

REGIONAL WEATHER ROUNDUP
NATIONAL WEATHER SERVICE STATE COLLEGE PA
500 PM EST MON JAN 16 2017

Note: "fair" indicates few or no clouds below 12,000 feet with no
significant weather and/or obstructions to visibility.

* = STATION THAT DOES NOT REPORT PRECIPITATION /E.G. RAIN...SNOW...ETC/
    THUNDER OR FOG.

PAZ002>004-007>009-013>016-020>023-029>032-162300-
WESTERN PENNSYLVANIA

CITY           SKY/WX    TMP DP  RH WIND       PRES   REMARKS
ERIE           CLOUDY    35  31  85 SE3       30.26F
MEADVILLE      CLOUDY    37  18  46 E5        30.23F
FRANKLIN*        N/A     36  25  64 E5        30.25F
NEW CASTLE     CLOUDY    36  30  79 CALM      30.26F
BEAVER COUNTY  NOT AVBL
BUTLER*        CLOUDY    37  32  81 E5        30.27F
PITTSBURGH INT CLOUDY    37  33  85 NE3       30.24F
PITTSBURGH     CLOUDY    38  32  79 CALM      30.24S
INDIANA*       CLOUDY    41  36  81 CALM      30.28R
LATROBE        LGT RAIN  37  37 100 VRB6      30.26S
WASHINGTON CO* CLOUDY    39  36  87 NE5       30.25R
$$

PAZ004>006-010>012-017>019-024>028-033>037-041-042-045-046-049>053-162300-
CENTRAL PENNSYLVANIA

CITY           SKY/WX    TMP DP  RH WIND       PRES   REMARKS
BRADFORD       LGT RAIN  39  16  39 CALM      30.23R
DUBOIS         CLOUDY    37  26  64 E3        30.24R
CLEARFIELD     CLOUDY    36  27  69 CALM      30.27R
JOHNSTOWN      LGT RAIN  37  34  89 CALM      30.23R FOG
ALTOONA        LGT RAIN  35  30  82 S5        30.28F
STATE COLLEGE  CLOUDY    34  27  75 SW3       30.30S
WILLIAMSPORT   CLOUDY    37  23  56 CALM      30.33F
SELINSGROVE    CLOUDY    36  25  64 S3        30.36S
FT INDIANTOWN  CLOUDY    36  24  63 CALM      30.35F
CAPITAL CITY   CLOUDY    37  24  59 E3        30.36F
HARRISBURG     CLOUDY    36  27  69 CALM      30.36S
YORK           CLOUDY    37  28  70 CALM      30.35F
$$

PAZ038>040-043-044-047-048-054-055-060>062-067>071-162300-
EASTERN PENNSYLVANIA

CITY           SKY/WX    TMP DP  RH WIND       PRES   REMARKS
SCRANTON       CLOUDY    36  27  69 SW6       30.30S
MOUNT POCONO   CLOUDY    34  23  64 CALM      30.25F
ALLENTOWN      CLOUDY    39  25  57 W7        30.35S
QUAKERTOWN*    CLOUDY    39  25  56 CALM      30.35F
READING        CLOUDY    38  24  57 SW6       30.36S
LANCASTER      CLOUDY    37  25  61 S3        30.37S
COATESVILLE    CLOUDY    36  21  55 VRB5      30.37S
POTTSTOWN      CLOUDY    39  23  52 SW5       30.37F
BLUE BELL      CLOUDY    39  27  60 SW3       30.36S
DOYLESTOWN     CLOUDY    41  24  51 CALM      30.35S
WILLOW GROVE   NOT AVBL
NORTH PHILA    CLOUDY    42  23  46 SW6       30.39F
PHILADELPHIA   CLOUDY    40  24  53 SW8       30.40S
$$




USA.gov is the U.S. government's official web portal to all federal, state and local government web resources and services.